Torna al catalogo

STARLINK-32295

AttivoComunicazioniVLEO
NORAD 62147·PAYLOAD·🇺🇸 United States

Lanciato Nov 30, 2024 da Cape Canaveral Space Force Station

Loading…

Prossimi Passaggi (prossime 24 ore)

TLE

AggiornatoSource: CelesTrak SupGP

Epoca: Sep 15, 2026, 02:47 UTC

1 62147C 24224J   26258.11645833 -.00004156  00000+0 -15056-3 0  2583
2 62147  43.0010 168.5738 0001369 275.3964 222.6023 15.27572028    10

Traccia STARLINK-32295 in tempo reale con AllMySat

Download on the App Store